Location: Bucharest
(44.4268°N, 26.1025°E)
Time: 05:32:13
(UTC+03:00)

X-37B - Pass Details

Date: 27 January 2022
Orbit: 329 x 342 km, 45.0° (Epoch: 18 May)

Event Time Altitude Azimuth Distance (km) Brightness Sun altitude
Rises 18:03:28 0° 206° (SSW) 2,107 5.0 -8.4°
Reaches altitude 10° 18:06:11 10° 177° (S) 1,270 3.4 -8.9°
Maximum altitude 18:07:38 13° 146° (SE) 1,106 2.7 -9.1°
Drops below altitude 10° 18:09:06 10° 115° (ESE) 1,271 2.7 -9.4°
Enters shadow 18:09:18 - 112° (ESE) 1,316 2.8 -9.4°
